[[{"header":{"parameterUnit":"m.s-1","parameterCategory":1,"la1":30.2991,"la2":30.254,"lo1":-89.0895,"lo2":-89.0444,"dy":0.0017,"dx":0.0017,"nx":28,"ny":28,"refTime":"2024-07-28T09:00:00:Z","depth":0,"parameterNumber":2,"parameterNumberName":"U-component_of_WINDS"},"data":[0,0,0,0,0,0,0,0,0,0,0,0,0,0,0,0,0,0,0,0,0,0,0,0,0,0,0,0,0,0,0,0,0,0,0,0,0,0,0,0,0,0,0,0,0,0,0,0,0,0,0,0,0,0,0,0,0,0,2.9369,2.937,0,2.9411,2.9412,2.9412,2.9395,2.9394,2.9393,2.9392,2.9438,2.9441,2.9443,0,0,0,0,0,0,0,0,0,0,0,0,0,2.9278,2.9279,2.9369,2.937,2.937,2.9411,2.9412,2.9412,2.9395,2.9393,2.9392,2.9391,2.9438,2.944,2.9443,0,0,0,0,0,0,0,0,0,0,0,0,0,2.9318,2.928,2.9369,2.9366,2.9366,2.9411,2.9412,2.9412,2.9395,2.9393,2.9392,2.9391,2.9437,2.944,2.9443,2.9494,0,0,2.9453,2.9455,0,0,0,0,0,0,0,0,2.9316,2.9322,2.9366,2.9367,2.9367,2.9396,2.9397,2.944,2.9395,2.9384,2.9392,2.939,2.9426,2.943,2.9441,2.9496,2.9498,2.9454,2.9456,2.9457,2.9458,0,0,0,0,0,0,0,2.9313,2.932,2.9386,2.9367,2.9367,2.9364,2.9368,2.9405,2.9413,2.9385,2.9384,2.9389,2.9426,2.9438,2.9442,2.9499,2.9454,2.9457,2.9459,2.946,2.9599,2.9601,0,0,0,0,0,0,2.931,2.9318,2.9384,2.9387,2.9337,2.9367,2.9372,2.9388,2.9413,2.9415,2.939,2.9388,2.9433,2.9438,2.9444,2.9506,2.9457,2.946,2.9462,2.9598,2.96,2.9602,0,0,0,0,0,0,2.9308,2.9316,2.9383,2.9352,2.936,2.937,2.9389,2.939,2.9402,2.9417,2.9418,2.9401,2.9432,2.9439,2.9482,2.9507,2.9462,2.9465,2.9596,2.9598,2.9601,2.9629,0,0,0,0,0,0,2.9305,2.9315,2.9334,2.9353,2.9362,2.9419,2.9391,2.9392,2.9407,2.9405,2.9427,2.9429,2.9432,2.9477,2.9485,2.9511,2.9467,2.9594,2.9597,2.96,2.9626,2.9633,2.9638,0,0,0,0,0,2.9302,2.9341,2.9335,2.9343,2.9385,2.942,2.9426,2.9426,2.9409,2.9429,2.9438,2.9429,2.9503,2.9481,2.949,2.9518,2.9592,2.9596,2.96,2.9624,2.9631,2.9638,0,0,0,0,0,0,2.9326,2.9343,2.9337,2.9382,2.94,2.9417,2.9441,2.9435,2.9458,2.9455,2.9456,2.9461,2.9505,2.9516,2.9491,2.9569,2.9545,2.9551,2.956,2.9568,2.9573,2.957,2.947,0,0,0,0,0,2.9336,2.9362,2.9376,2.9415,2.9424,2.9432,2.9447,2.9446,2.9465,2.9472,2.9485,2.9504,2.9532,2.955,2.9577,2.9628,2.9633,2.9651,2.9657,2.9662,2.9667,2.9695,2.9704,2.9615,2.9614,2.9614,0,0,2.9358,2.9371,2.9387,2.942,2.9434,2.9462,2.9438,2.9469,2.949,2.9477,2.9518,2.9528,2.955,2.9597,2.9619,2.9607,2.9693,2.9667,2.967,2.9673,2.97,2.9709,2.9716,2.9617,2.9617,2.9616,0,0,2.9413,2.9424,2.9458,2.9472,2.9493,2.9497,2.9506,2.9524,2.953,2.9571,2.9562,2.9588,2.9636,2.9652,2.9667,2.9728,2.9721,2.9737,2.9768,2.9796,2.9803,2.9809,2.9832,2.984,2.9742,2.9742,2.9742,0,2.9438,2.9478,2.9477,2.9508,2.9524,2.9513,2.9548,2.9562,2.9591,2.9602,2.9589,2.9648,2.9662,2.9714,2.9729,2.9741,2.9751,2.9734,2.9802,2.9808,2.9814,2.9836,2.9844,2.9744,2.9744,2.9743,2.9743,0,2.9509,2.9537,2.9563,2.9589,2.9608,2.9641,2.9646,2.9665,2.9662,2.9669,2.9711,2.9728,2.9757,2.9769,2.9768,2.9821,2.9813,2.9801,2.9777,2.9824,2.9845,2.9853,2.9746,2.9746,2.9745,2.9745,0,0,2.9579,2.9605,2.9614,2.9626,2.9648,2.9671,2.9705,2.9733,2.9749,2.977,2.9799,2.9839,2.9828,2.9845,2.9845,2.9869,2.9918,2.9854,2.9854,2.9866,2.9978,2.9988,2.9997,2.9913,2.9914,2.9916,2.9977,0,2.9635,2.9693,2.9693,2.9746,2.9773,2.9764,2.9793,2.981,2.9818,2.9843,2.9851,2.988,2.9863,2.9873,2.9896,2.9907,2.9941,2.9902,2.9941,2.9942,2.9936,3.0008,3.0018,3.0075,2.9985,2.9986,2.9987,0,2.9709,2.9731,2.9786,2.9805,2.9817,2.9843,2.9869,2.9893,2.9913,2.9917,2.9935,2.9932,2.9967,2.9942,2.9992,2.9966,2.9982,2.999,2.9992,2.9996,2.9968,3.0014,3.0093,3.0101,2.9999,2.9998,2.9998,0,2.9755,2.9799,2.9838,2.9849,2.9871,2.989,2.9901,2.9919,2.9936,2.996,2.9971,2.9999,3.0014,3.0036,3.0041,3.0022,3.0091,3.0066,3.0096,3.0096,3.0111,3.011,3.0194,3.0121,3.0121,3.0121,3.0121,0,2.9819,2.9853,2.9859,2.9883,2.9922,2.9923,2.9962,2.9971,2.9988,3.0015,3.0008,3.0034,3.0038,3.0065,3.0069,3.0111,3.0118,3.0122,3.0123,3.0123,3.0123,3.0134,3.013,3.0123,3.0123,3.0122,3.0122,0,2.9877,2.9882,2.9924,2.9942,2.9948,2.9976,2.9992,3.0016,3.0022,3.0056,3.0064,3.0075,3.0107,3.0113,3.0151,3.0154,3.0203,3.02,3.0196,3.0195,3.0225,3.0222,3.0319,3.0332,3.025,3.0251,3.0252,0,2.9917,2.9944,2.9964,2.9981,2.9993,3.002,3.0037,3.0039,3.0058,3.0083,3.0104,3.0135,3.0159,3.021,3.0222,3.0251,3.0249,3.0281,3.0254,3.0253,3.025,3.0249,3.0252,3.0286,3.0287,3.0288,3.0289,0,2.9988,2.999,3.0014,3.004,3.0061,3.0081,3.0101,3.0116,3.012,3.0142,3.0173,3.0192,3.023,3.0261,3.029,3.0303,3.0297,3.0297,3.0306,3.0306,3.0303,3.0305,3.021,3.0295,3.0294,3.0294,3.0293,3.0293,3.0039,3.0063,3.0081,3.0109,3.0124,3.0142,3.0166,3.0175,3.0201,3.0231,3.0231,3.0266,3.0287,3.0325,3.0339,3.0367,3.0357,3.037,3.0373,3.0376,3.0379,3.0298,3.0372,3.0372,3.0372,3.0372,3.0372,0,3.011,3.0122,3.0147,3.0175,3.0197,3.0189,3.021,3.023,3.026,3.0279,3.0303,3.034,3.037,3.0384,3.0414,3.0434,3.0432,3.0442,3.0441,3.0444,3.0385,3.0375,3.0443,3.0443,3.0443,3.0443,3.0443,3.0443,3.015,3.0189,3.0193,3.024,3.0251,3.0284,3.0297,3.0315,3.033,3.0371,3.0396,3.0404,3.0422,3.0453,3.0481,3.0485,3.0496,3.0507,3.051,3.0455,3.0448,3.0441,3.0431,3.051,3.051,3.0566,3.0566,3.0567]},{"header":{"parameterUnit":"m.s-1","parameterCategory":1,"la1":30.2991,"la2":30.254,"lo1":-89.0895,"lo2":-89.0444,"dy":0.0017,"dx":0.0017,"nx":28,"ny":28,"refTime":"2024-07-28T09:00:00:Z","depth":0,"parameterNumber":3,"parameterNumberName":"V-component_of_WINDS"},"data":[0,0,0,0,0,0,0,0,0,0,0,0,0,0,0,0,0,0,0,0,0,0,0,0,0,0,0,0,0,0,0,0,0,0,0,0,0,0,0,0,0,0,0,0,0,0,0,0,0,0,0,0,0,0,0,0,0,0,1.6168,1.6169,0,1.6245,1.6246,1.6247,1.6294,1.6294,1.6294,1.6295,1.637,1.6372,1.6374,0,0,0,0,0,0,0,0,0,0,0,0,0,1.6056,1.6058,1.6168,1.6169,1.617,1.6245,1.6246,1.6247,1.6294,1.6294,1.6294,1.6295,1.637,1.6372,1.6374,0,0,0,0,0,0,0,0,0,0,0,0,0,1.6116,1.6059,1.6168,1.6203,1.6206,1.6245,1.6246,1.6248,1.6294,1.6294,1.6294,1.6295,1.6369,1.6372,1.6374,1.6384,0,0,1.6382,1.6384,0,0,0,0,0,0,0,0,1.6113,1.612,1.6196,1.62,1.6205,1.626,1.6235,1.6293,1.6294,1.626,1.6295,1.6295,1.6333,1.6339,1.6352,1.6387,1.639,1.6383,1.6384,1.6385,1.6386,0,0,0,0,0,0,0,1.6109,1.6117,1.6199,1.6197,1.6202,1.6212,1.6221,1.6246,1.6294,1.6263,1.6267,1.6276,1.6335,1.635,1.6355,1.6392,1.6383,1.6385,1.6387,1.6388,1.6435,1.6434,0,0,0,0,0,0,1.61,1.6113,1.6196,1.6201,1.6159,1.6214,1.6224,1.6242,1.6294,1.6302,1.6275,1.6277,1.6345,1.6351,1.6357,1.637,1.6385,1.6388,1.639,1.6435,1.6435,1.6434,0,0,0,0,0,0,1.6097,1.6107,1.6193,1.6158,1.617,1.6216,1.6235,1.6243,1.6258,1.6303,1.6311,1.6281,1.6345,1.6354,1.6376,1.6373,1.6389,1.6392,1.6435,1.6435,1.6434,1.6397,0,0,0,0,0,0,1.6094,1.6105,1.6111,1.6158,1.6172,1.6212,1.6235,1.6245,1.6263,1.6266,1.6311,1.6318,1.6346,1.6372,1.6379,1.6377,1.6394,1.6436,1.6435,1.6435,1.6398,1.6395,1.6392,0,0,0,0,0,1.6089,1.6097,1.6111,1.6121,1.618,1.6212,1.622,1.6253,1.6262,1.6267,1.6295,1.6317,1.6373,1.6374,1.6382,1.6381,1.6436,1.6435,1.6435,1.64,1.6395,1.6392,0,0,0,0,0,0,1.6048,1.6104,1.612,1.6144,1.6173,1.622,1.6228,1.6248,1.6274,1.6277,1.6315,1.6325,1.6343,1.6365,1.6365,1.6392,1.6407,1.6407,1.6377,1.6374,1.637,1.6365,1.6396,0,0,0,0,0,1.6042,1.6065,1.6112,1.6128,1.6142,1.6182,1.6197,1.622,1.6251,1.6264,1.6294,1.6322,1.6346,1.6361,1.6386,1.6401,1.641,1.6404,1.6401,1.6398,1.6398,1.6405,1.6403,1.6432,1.6432,1.6432,0,0,1.6029,1.6063,1.6075,1.6121,1.6146,1.6167,1.6192,1.6214,1.6229,1.6267,1.629,1.6313,1.6347,1.6365,1.6375,1.6384,1.6392,1.6397,1.6395,1.6396,1.6404,1.6402,1.6399,1.6431,1.6431,1.6431,0,0,1.6017,1.6045,1.6061,1.6085,1.6123,1.6149,1.6152,1.6196,1.6212,1.6236,1.6264,1.6282,1.6323,1.6345,1.6362,1.6354,1.6373,1.636,1.6343,1.635,1.6348,1.6346,1.6341,1.6339,1.636,1.636,1.636,0,1.5996,1.6031,1.6066,1.6085,1.6103,1.6138,1.6152,1.6174,1.6217,1.6228,1.6237,1.6287,1.6313,1.6336,1.6334,1.6347,1.635,1.6356,1.6345,1.6344,1.6343,1.6338,1.6337,1.6358,1.6359,1.6359,1.6359,0,1.6002,1.6025,1.6032,1.6073,1.6092,1.6109,1.6145,1.6159,1.6179,1.6203,1.6225,1.6257,1.6287,1.6294,1.6315,1.6319,1.6323,1.6338,1.6354,1.6337,1.6334,1.6333,1.6356,1.6356,1.6357,1.6357,0,0,1.5969,1.6026,1.6028,1.6046,1.6089,1.6106,1.6123,1.6153,1.6163,1.6191,1.6205,1.6237,1.625,1.6269,1.6292,1.6297,1.6286,1.6312,1.6313,1.6304,1.6291,1.6278,1.6276,1.6299,1.6299,1.6299,1.6287,0,1.5962,1.5995,1.6026,1.6047,1.6067,1.6098,1.6112,1.6139,1.6161,1.618,1.6204,1.6225,1.6242,1.6253,1.6261,1.6286,1.6284,1.6287,1.6311,1.6311,1.6301,1.6275,1.6263,1.625,1.6286,1.6286,1.6286,0,1.5959,1.5985,1.6008,1.6046,1.6055,1.6068,1.6096,1.6114,1.6143,1.6158,1.6178,1.6201,1.6218,1.6231,1.6253,1.6255,1.6266,1.628,1.628,1.6283,1.6297,1.6276,1.6247,1.6245,1.6285,1.6285,1.6285,0,1.593,1.5971,1.5989,1.6004,1.6048,1.6056,1.6074,1.6104,1.6119,1.6143,1.6152,1.6178,1.6191,1.6209,1.6238,1.6245,1.6256,1.6272,1.6268,1.6267,1.6269,1.6268,1.624,1.6277,1.6277,1.6277,1.6277,0,1.5919,1.5932,1.5977,1.5988,1.6002,1.6035,1.6048,1.6069,1.6094,1.6109,1.6137,1.615,1.6187,1.6203,1.6225,1.6238,1.6245,1.6256,1.6262,1.6253,1.6252,1.6261,1.6262,1.6276,1.6277,1.6277,1.6277,0,1.589,1.5921,1.5943,1.5982,1.5992,1.6001,1.6034,1.6045,1.6067,1.6085,1.6091,1.6126,1.6146,1.6176,1.6205,1.622,1.6229,1.6239,1.622,1.6223,1.6216,1.6215,1.6192,1.619,1.6229,1.6228,1.6228,0,1.5882,1.5892,1.5931,1.5943,1.5961,1.598,1.5994,1.6026,1.604,1.6072,1.6078,1.6101,1.612,1.6151,1.6178,1.62,1.6209,1.6199,1.6213,1.6203,1.6207,1.6206,1.6206,1.6196,1.6196,1.6195,1.6195,0,1.5862,1.5875,1.5896,1.5921,1.5937,1.5958,1.5981,1.5988,1.6024,1.6038,1.6059,1.6074,1.6103,1.6124,1.6148,1.6166,1.6185,1.619,1.619,1.6181,1.6169,1.6173,1.621,1.6191,1.6191,1.6191,1.6192,1.6192,1.5842,1.5851,1.588,1.5901,1.592,1.5939,1.5951,1.5974,1.5992,1.6018,1.6035,1.6054,1.608,1.6115,1.6131,1.6145,1.6154,1.6154,1.6154,1.6153,1.6149,1.6166,1.615,1.615,1.615,1.615,1.615,0,1.5822,1.5841,1.586,1.589,1.5905,1.5922,1.5946,1.5958,1.5974,1.5997,1.6014,1.6036,1.6056,1.6083,1.6104,1.611,1.6119,1.6114,1.6114,1.6117,1.6141,1.6138,1.6106,1.6106,1.6106,1.6106,1.6106,1.6106,1.5814,1.583,1.5846,1.587,1.5889,1.5908,1.592,1.5937,1.5955,1.5978,1.5994,1.6012,1.6035,1.6057,1.6075,1.6082,1.6088,1.608,1.609,1.6112,1.6116,1.612,1.6117,1.6081,1.6081,1.6065,1.6064,1.6064]}]]